User: anonymous   Login
Location: Franzen
(48.6167°N, 15.3833°E)
Time: 00:18:44
(UTC+00:00)
Language:

ISS - Orbit

View from above orbital plane
View from above orbital plane
View from above satellite
View from above satellite

Ground track
Ground track

The orbit data is extracted from the following two-line orbital elements,

1 25544U 98067A   21214.81948831  .00000142  00000-0  10740-4 0  9995
2 25544  51.6433 112.1228 0001216 240.4176 230.4265 15.48862596295827
Epoch (UTC): 02 August 2021 19:40:03
Eccentricity: 0.0001216
inclination: 51.6433°
perigee height: 419 km
apogee height: 421 km
right ascension of ascending node: 112.1228°
argument of perigee: 240.4176°
revolutions per day: 15.48862596
mean anomaly at epoch: 230.4265°
orbit number at epoch: 29582

The dashed part of the orbit path shows where the satellite is in the earth's shadow,  

DLR